Farmville, Virginia, United States (23901)
Lat: 37.30N, Lon: 78.39W
Wx Zone: VAZ060
Local Info
Past Weather Observations for Today

NOTE: This archive is for the closest National Weather Service station to Farmville. Information may differ from the station used for current weather conditions.

Click here for Long-term Archive

Time Weather Temperature Dewpoint Humidity Pressure Winds Precip Visibility
08:54
Clear
81°F / 27°C 70°F / 21°C 70% 29.95 in
(1014 mb)
N 6.9 mph
(N 11 kph)
- 10SM
07:54
Clear
77°F / 25°C 70°F / 21°C 79% 29.95 in
(1014 mb)
NW 4.6 mph
(NW 7 kph)
- 10SM
06:54
Clear
73°F / 23°C 70°F / 21°C 89% 29.92 in
(1013 mb)
Calm - 10SM
05:54
Clear
70°F / 21°C 70°F / 21°C 100% 29.92 in
(1013 mb)
W 5.8 mph
(W 9 kph)
- 10SM
05:08
Partly Cloudy
72°F / 22°C 72°F / 22°C 100% 29.89 in
(1012 mb)
Calm - 10SM
04:54
Mostly Cloudy
Fog And Mist
72°F / 22°C 72°F / 22°C 100% 29.89 in
(1012 mb)
Calm - 5SM
04:52
Overcast
Fog And Mist
72°F / 22°C 72°F / 22°C 100% 29.89 in
(1012 mb)
Calm - 3SM
04:48
Overcast
Fog And Mist
72°F / 22°C 72°F / 22°C 100% 29.89 in
(1012 mb)
Calm - 1 1/2SM
04:30
Obscured
Fog
72°F / 22°C 72°F / 22°C 100% 29.89 in
(1012 mb)
SSE 3.5 mph
(SSE 6 kph)
- 1/2SM
04:22
Obscured
Fog And Mist
72°F / 22°C 72°F / 22°C 100% 29.89 in
(1012 mb)
Calm - 1SM
04:09
Obscured
Fog And Mist
72°F / 22°C 72°F / 22°C 100% 29.89 in
(1012 mb)
Calm - 1SM
03:52
Overcast
Fog And Mist
72°F / 22°C 72°F / 22°C 100% 29.89 in
(1012 mb)
Calm - 1 3/4SM
03:51
Overcast
Fog And Mist
72°F / 22°C 72°F / 22°C 100% 29.89 in
(1012 mb)
Calm - 1 1/2SM
02:54
Obscured
Fog And Mist
72°F / 22°C 72°F / 22°C 100% 29.89 in
(1012 mb)
SSW 3.5 mph
(SSW 6 kph)
- 3/4SM
02:51
Obscured
Fog And Mist
72°F / 22°C 72°F / 22°C 100% 29.89 in
(1012 mb)
Calm - 3/4SM
02:38
Obscured
Fog And Mist
72°F / 22°C 72°F / 22°C 100% 29.89 in
(1012 mb)
SSE 3.5 mph
(SSE 6 kph)
- 1SM
02:29
Overcast
Fog And Mist
72°F / 22°C 72°F / 22°C 100% 29.89 in
(1012 mb)
SSE 4.6 mph
(SSE 7 kph)
- 1 3/4SM
01:54
Overcast
72°F / 22°C 72°F / 22°C 100% 29.89 in
(1012 mb)
SSE 4.6 mph
(SSE 7 kph)
- 9SM
00:54
Overcast
73°F / 23°C 72°F / 22°C 94% 29.92 in
(1013 mb)
Calm - 10SM
00:27
Overcast
72°F / 22°C 72°F / 22°C 100% 29.92 in
(1013 mb)
Calm - 10SM
00:16
Mostly Cloudy
72°F / 22°C 72°F / 22°C 100% 29.92 in
(1013 mb)
Calm - 10SM
Time Weather Temperature Dewpoint Humidity Pressure Winds Precip Visibility


Weather for websites

WeatherForYou.com, LLC is not responsible for any damages or problems caused by this service. Current weather conditions are obtained from the closest station including government and personal stations which may have varying degrees of accuracy. Weather forecasts are derived from the NOAA NDFD. Like all things, this site belongs to Jesus Christ... He just trusts us to maintain it. If you have any questions or comments email webmaster@weatherforyou.com

Copyright © 2016, WeatherForYou.com LLC. All rights reserved.